www.pogodaiklimat.ru

Погода и климат >> Архив погоды >> Россия >> Псковская область >> Пушкинские Горы


АРХИВ ПОГОДЫ в Пушкинских Горах

Время (UTC), дата Ветер
(напр.,м/с)
 
Видим.   Явления Облачность Т
(С)
Тd
(С)
f
(%)
Тe
(С)
Тes
(С)
Комфортность P
(гПа)
Po
(гПа)
Тmin
(С)
Tmax
(С)
R
(мм)
R24
(мм)
S
(см)
18 12.06 СВ 1 20 км 8/0
[Ac trans Ci fib]
+19.0 +15.2 79 +21 +21 комфорт 1020.9 1008.7 +21.8
21 12.06 В 3 20 км 3/0
[Ci fib]
+17.0 +13.9 82 +17 +17 1022.0 1009.6
00 13.06 В 4 20 км 3/0
[Ci fib]
+15.2 +13.4 89 +14 +14 1022.0 1009.6
03 13.06 В 3 20 км 5/0
[Ac trans]
+14.6 +12.5 87 +14 +14 1021.9 1009.4 +14.3
06 13.06 В 2 20 км гроза без осадков 10/10 600 м
[Cb cap]
+16.4 +12.7 79 +17 +17 1022.4 1010.0 +14.3
09 13.06 В 3 20 км {гроза, ливн. осадки} 9/5 600 м
[Cb cap Ci fib]
+19.0 +13.7 71 +20 +25 1022.6 1010.3
12 13.06 В 4
{10}
20 км {гроза, ливн. осадки} 8/0
[Ci fib]
+23.5 +16.0 63 +27 +34 душно 1021.0 1008.9
15 13.06 ЮВ 4 20 км 4/0
[Ci fib]
+24.3 +17.2 65 +28 +31 душно 1019.5 1007.5 0.3
18 13.06 ЮВ 2 20 км 8/0
[Ac trans Ci fib]
+22.3 +17.3 73 +27 +27 душно 1019.0 1006.9 +24.5 0.3
21 13.06 ЮВ 3 20 км 8/0
[Ci fib]
+20.7 +17.2 80 +25 +25 комфорт 1017.9 1005.8
00 14.06 Ю 2 20 км 9/0
[Ci fib]
+19.9 +18.0 89 +23 +23 комфорт 1017.6 1005.4
03 14.06 Ю 2 20 км 9/3 600 м
[Cb cap Ac trans Ci fib]
+19.5 +18.2 92 +22 +23 комфорт 1017.2 1005.0 +19.1
06 14.06 ЮЗ 3 20 км 8/0
[Ac trans]
+22.1 +18.3 79 +27 +30 душно 1016.8 1004.7 +19.1
09 14.06 З 2 20 км 9/0
[Ac trans]
+23.6 +17.2 67 +27 +34 жарко 1016.4 1004.4
12 14.06 СЗ 2 20 км 9/4 1000 м
[Cu med, cong Ci fib]
+25.2 +17.8 64 +30 +36 душно 1016.5 1004.6
15 14.06 З 2 20 км в посл. час гроза {ливн. осадки} 9/9 600 м
[Cb cap]
+23.4 +19.4 78 +30 +31 очень
душно
1016.4 1004.4 0.4
18 14.06 СЗ 2 20 км {гроза, ливн. осадки} 3/3 600 м
[Cb cap]
+21.6 +17.3 77 +26 +26 душно 1016.7 1004.6 +26.8 0.4
21 14.06 З 2 20 км 9/9 600 м
[Cb cap]
+18.2 +15.3 83 +19 +19 1018.4 1006.1
00 15.06 З 1 20 км 9/9 600 м
[Cb cap]
+15.2 +14.6 96 +16 +16 1018.5 1006.1
03 15.06 СЗ 2 20 км 10/10 600 м
[Cb cap]
+14.5 +12.9 90 +14 +14 1018.7 1006.3 +13.9
06 15.06 СЗ 2 20 км 10/10 600 м
[Cb cap]
+13.9 +11.8 87 +13 +13 1019.6 1007.1 +13.8
09 15.06 З 2 20 км 10/10 600 м
[Cb cap]
+17.1 +12.8 76 +17 +17 1019.5 1007.2
12 15.06 СЗ 2 20 км 8/6 1000 м
[Cu med, cong Ci fib]
+21.1 +13.7 63 +24 +28 комфорт 1018.3 1006.2
15 15.06 С 1 20 км 9/8 600 м
[Cb cap Ci fib]
+21.6 +13.8 61 +24 +25 комфорт 1017.1 1005.0
18 15.06 штиль 0 20 км 6/6 600 м
[Cb cap]
+19.4 +15.4 78 +21 +21 комфорт 1016.8 1004.6 +23.7
21 15.06 С 1 20 км 3/0
[Ci fib]
+14.6 +13.2 91 +15 +15 1017.1 1004.7
00 16.06 штиль 0 20 км ясно +11.7 +11.4 98 +11 +11 1017.7 1005.2
03 16.06 штиль 0 10 км 3/0
[Ac trans]
+14.6 +14.0 96 +14 +15 1017.0 1004.6 +11.4
06 16.06 ЮЗ 1 20 км 3/0
[Ci fib]
+19.4 +14.3 72 +22 +30 комфорт 1017.6 1005.4 +11.4
09 16.06 З 2 20 км 8/5 600 м
[Cb cap Ci fib]
+21.9 +13.5 59 +25 +31 комфорт 1017.0 1004.9
12 16.06 ЮЗ 1 20 км 8/4 1000 м
[Cu med, cong Ac trans Ci fib]
+23.8 +12.5 49 +26 +32 жарко 1015.8 1003.8
15 16.06 З 1 20 км 9/3 1000 м
[Cu med, cong Ac trans Ci fib]
+24.1 +12.1 47 +26 +28 жарко 1015.1 1003.1
18 16.06 штиль 0 20 км 6/3 1000 м
[Cu med, cong Ci fib]
+20.7 +15.4 72 +23 +24 комфорт 1014.9 1002.8 +25.9
21 16.06 СВ 1 20 км 4/0
[Ci fib]
+14.9 +13.9 94 +15 +15 1015.2 1002.8
00 17.06 Ю 1 10 км 3/0
[Ci fib]
+13.1 +12.7 97 +13 +13 1015.4 1003.0
03 17.06 ЮВ 1 20 км 9/0
[Ac trans Ci fib]
+15.5 +13.8 90 +16 +17 1015.2 1002.9 +12.9
06 17.06 ЮЗ 1 20 км 9/8 600 м
[Cb cap Ac trans]
+17.4 +14.8 85 +18 +20 1015.4 1003.1 +12.9
09 17.06 З 2 20 км в посл. час ливневой дождь 10/8 600 м
[Cb cap Ac As]
+21.1 +15.1 69 +24 +25 комфорт 1015.2 1003.1
12 17.06 ЮЗ 1 20 км {ливн. осадки} 10/8 600 м
[Cb cap Ac As]
+19.7 +15.1 75 +23 +24 комфорт 1015.4 1003.3
15 17.06 С 1 20 км 9/9 600 м
[Cb cap]
+20.4 +16.1 76 +24 +25 комфорт 1015.2 1003.1 0.0
18 17.06 З 1 10 км слаб. ливневой дождь 9/9 600 м
[Cb cap]
+17.1 +16.6 97 +18 +18 1015.3 1003.1 +21.9 1
21 17.06 штиль 0 10 км {ливн. осадки} 8/3 600 м
[Cb cap Ci fib]
+13.4 +13.1 98 +13 +13 1016.3 1003.9
00 18.06 штиль 0 1000 м дымка {ливн. осадки} 4/0
[Ci fib]
+12.3 +12.1 99 +12 +12 1017.3 1004.8
03 18.06 З 1 20 км ясно +13.0 +12.6 97 +13 +14 1018.0 1005.5 +11.9 1
06 18.06 З 2 20 км ясно +16.9 +12.8 77 +17 +25 1018.7 1006.4 +11.9 0.1
09 18.06 З 3 20 км 1/1 1000 м
[Cu hum]
+21.3 +11.8 55 +23 +34 комфорт 1018.3 1006.2
12 18.06 З 4 20 км 3/3 1000 м
[Cu hum]
+23.5 +11.9 48 +25 +31 комфорт 1018.2 1006.1
15 18.06 СЗ 2 20 км 4/4 1000 м
[Cu hum]
+23.9 +11.8 47 +26 +29 жарко 1017.5 1005.5
18 18.06 З 1 20 км ясно +21.8 +12.3 55 +24 +24 комфорт 1017.4 1005.3 +24.5
21 18.06 штиль 0 20 км ясно +13.8 +11.9 88 +13 +13 1018.7 1006.2
00 19.06 штиль 0 20 км ясно +11.6 +11.1 97 +11 +11 1019.5 1006.9
03 19.06 Ю 1 20 км ясно +12.8 +11.1 89 +13 +14 1019.9 1007.4 +10.2
06 19.06 ЮЗ 1 20 км 1/0
[Ci fib]
+19.1 +13.6 70 +21 +30 комфорт 1019.6 1007.4 +10.2
09 19.06 Ю 1 20 км ясно +22.5 +13.8 58 +26 +43 жарко 1019.1 1007.0
12 19.06 З 1 20 км 3/0
[Ci fib]
+25.4 +13.9 49 +28 +42 жарко 1018.2 1006.2
15 19.06 ЮЗ 1 20 км 4/0
[Ci fib]
+26.1 +10.4 37 +27 +32 жарко 1016.6 1004.7

 

Местоположение метеостанции Пушкинские Горы (Псковская область, Россия): широта 57.02 долгота 28.90 высота над уровнем моря 108 м.

В архиве по умолчанию представлена погода в Пушкинских Горах за последнюю неделю. Архивные данные за месяц целиком и за предыдущие месяцы, начиная с января 2011 года, Вы можете получить, выбрав интересующий диапазон дат из раскрывающегося списка и нажав кнопку "Ввод!".


*Определитесь, кто Вы:
робот инопланетянин человек

Внимание! Время в таблицах - всемирное. Для получения местного времени необходимо прибавить поправку, которая равна 3 ч.

Смотрите также архив погоды в соседних городах и на ближайших метеорологических станциях:

Погода в Опочке (Псковская область, Россия) (35 км)
Погода в Сущево (Псковская область, Россия) (61 км)
Погода в Пскове (Псковская область, Россия) (95 км)
Погода в Дно (Псковская область, Россия) (109 км)
Погода в Резекне (Латвия) (113 км)
Погода в Алуксне (Латвия) (121 км)
Погода в Великих Луках (Псковская область, Россия) (129 км)
Погода в Гулбене (Латвия) (132 км)
Погода в Холме (Новгородская область, Россия) (139 км)
Погода в Стругах-Красных (Псковская область, Россия) (140 км)

Пояснения к столбцам:

Ветер - указаны скорость ветра в м/с - средняя за 10 мин, порывы в срок и между сроками (в фигурных скобках) и направление, откуда дует ветер: С - северный, СВ - северо-восточный, В - восточный, ЮВ - юго-восточный, Ю - южный, ЮЗ - юго-западный, З - западный, СЗ - северо-западный.
Видимость - горизонтальная дальность видимости в метрах или километрах. При видимости от 1 до 10 км при отсутствии осадков обычно наблюдается дымка, при ухудшении видимости до 1 км и менее - туман. В сухую погоду видимость может ухудшаться дымом, пылью или мглою.
Явления - указаны атмосферные явления, наблюдавшиеся в срок или в последний час перед сроком; фигурными скобками обозначены явления, наблюдавшиеся между сроками (за 1-3 часа до срока); квадратными скобками обозначены град или гололедные отложения с указанием их диаметра в мм.
Облачность - указаны через наклонную черту общая и нижняя облачность в баллах и высота нижней границы облаков в метрах; квадратными скобками обозначены формы облаков: Ci - перистые, Cs - перисто-слоистые, Cc - перисто-кучевые, Ac - высококучевые, As - высокослоистые, Sc - слоисто-кучевые, Ns - слоисто-дождевые, Cu - кучевые, Cb - кучево-дождевые. Подробнее классификацию облаков см. в Атласе облаков (PDF).
T - Температура воздуха - температура, измеренная на высоте 2 м над землей.
Td - Температура точки росы - температура, при понижении до которой содержащийся в воздухе водяной пар достигнет насыщения.
f - Относительная влажность воздуха - влажноcть воздуха, измеренная на высоте 2 м над землей.
Te - Эффективная температура - температура, которую ощущает одетый по сезону человек в тени. Характеристика душности погоды. При расчете учитывается влияние влажности воздуха и скорости ветра на теплоощущения человека.
Tes - Эффективная температура на солнце - температура, которую ощущает человек, с поправкой на солнечный нагрев. Характеристика знойности погоды. Зависит от высоты солнца над горизонтом, облачности и скорости ветра. Ночью, в пасмурную погоду, а также при ветре 12 м/с и более поправка равна нулю.
P - Атмосферное давление - приведенное к уровню моря атмосферное давление.
Po - Атмосферное давление - измеренное на уровне метеостанции атмосферное давление.
Tmin - Минимальная температура - минимум температуры воздуха на высоте 2 м над землей.
Tmax - Максимальная температура - максимум температуры воздуха на высоте 2 м над землей.
R - Количество осадков - Количество выпавших осадков за период времени, мм. При наведении курсора мыши на число - период времени, за который выпало указанное количество осадков.
R24 - Количество осадков - Количество выпавших осадков за 24 часа, мм.
S - Снежный покров - Высота снежного покрова, см. При наведении курсора мыши на число - состояние снежного покрова и степень покрытия местности в баллах.